TimeCDT,TemperatureF,Dew PointF,Humidity,Sea Level PressureIn,VisibilityMPH,Wind Direction,Wind SpeedMPH,Gust SpeedMPH,PrecipitationIn,Events,Conditions,WindDirDegrees,DateUTC
12:53 AM,68.0,46.0,45,29.83,10.0,East,8.1,-,N/A,,Partly Cloudy,90,2013-05-16 05:53:00
1:53 AM,64.0,46.9,54,29.83,10.0,East,4.6,-,N/A,,Clear,100,2013-05-16 06:53:00
2:53 AM,63.0,46.9,56,29.82,10.0,Calm,Calm,-,N/A,,Clear,0,2013-05-16 07:53:00
3:53 AM,60.1,48.9,67,29.81,10.0,SSE,5.8,-,N/A,,Clear,160,2013-05-16 08:53:00
4:53 AM,59.0,53.1,81,29.83,10.0,South,3.5,-,N/A,,Clear,190,2013-05-16 09:53:00
5:53 AM,60.1,57.0,90,29.82,10.0,South,6.9,-,N/A,,Clear,170,2013-05-16 10:53:00
6:53 AM,60.1,57.9,93,29.83,7.0,SSE,5.8,-,N/A,,Clear,160,2013-05-16 11:53:00
7:53 AM,64.0,60.1,87,29.82,8.0,SE,3.5,-,N/A,,Clear,140,2013-05-16 12:53:00
8:53 AM,68.0,61.0,78,29.82,10.0,SE,8.1,-,N/A,,Clear,140,2013-05-16 13:53:00
9:53 AM,75.0,60.1,60,29.82,10.0,SSE,6.9,-,N/A,,Clear,160,2013-05-16 14:53:00
10:53 AM,80.1,55.0,42,29.81,10.0,SSE,10.4,-,N/A,,Clear,160,2013-05-16 15:53:00
11:53 AM,81.0,54.0,39,29.80,10.0,South,12.7,20.7,N/A,,Clear,170,2013-05-16 16:53:00
12:53 PM,82.9,54.0,37,29.78,10.0,South,16.1,24.2,N/A,,Clear,170,2013-05-16 17:53:00
1:53 PM,84.0,55.0,37,29.78,10.0,South,15.0,23.0,N/A,,Clear,180,2013-05-16 18:53:00
2:53 PM,84.9,54.0,34,29.76,10.0,South,16.1,21.9,N/A,,Clear,190,2013-05-16 19:53:00
3:53 PM,81.0,53.1,38,29.75,10.0,SSE,12.7,23.0,N/A,,Clear,150,2013-05-16 20:53:00
4:53 PM,81.0,55.0,41,29.75,10.0,South,17.3,23.0,N/A,,Partly Cloudy,170,2013-05-16 21:53:00
5:53 PM,77.0,57.0,50,29.76,10.0,SSE,12.7,-,0.00,,Mostly Cloudy,160,2013-05-16 22:53:00
6:53 PM,75.9,57.9,54,29.78,10.0,South,12.7,-,0.00,,Partly Cloudy,190,2013-05-16 23:53:00
7:53 PM,73.0,59.0,61,29.75,10.0,SSE,9.2,-,N/A,,Partly Cloudy,160,2013-05-17 00:53:00
8:53 PM,72.0,59.0,64,29.78,10.0,South,6.9,-,N/A,,Mostly Cloudy,180,2013-05-17 01:53:00
9:53 PM,71.1,59.0,66,29.79,10.0,South,8.1,-,N/A,,Partly Cloudy,170,2013-05-17 02:53:00
10:53 PM,71.1,59.0,66,29.79,10.0,South,12.7,-,N/A,,Scattered Clouds,170,2013-05-17 03:53:00
11:53 PM,69.1,57.9,68,29.78,10.0,SSE,11.5,-,N/A,,Clear,160,2013-05-17 04:53:00